{"data":{"norad_id":65110,"epoch":"2026-05-25T02:56:49.475904Z","epoch_age_seconds":58239,"freshness":"FRESH","line1":"1 65110U 25168E   26145.12279486 -.00000081  00000+0  92228-4 0  9998","line2":"2 65110  50.0050  48.4135 0009314  23.1819 336.9472 13.29321726 39621","mean_motion":13.29321726,"eccentricity":0.0009314,"inclination_deg":50.005,"raan_deg":48.4135,"arg_perigee_deg":23.1819,"mean_anomaly_deg":336.9472,"bstar":9.2228e-5,"rev_number":3962,"period_min":108.32592079368,"perigee_km":1142.3116305659,"apogee_km":1156.3337825073,"semimajor_km":7527.4597065366,"source":"CELESTRAK","updated_at":"2026-05-25T13:38:05.134513Z"}}